When you browse on this site, cookies collect data to enhance your experience and personalize the content and advertising you see.
Visit our Privacy Policy to learn more. By continuing to use the site, you agree to this use of cookies and data.
  • In Latvia
  • List of Countries
  • For 7 days
  • Water Temperature
  • Satellite Maps
  • Weather Map
  • Weather Widgets
  • user-avatar
    Login

    Hourly Weather Mojecice

    Today, 20 February, Wednesday

    Time Temperature Precipitation Wind Pressure Humidity
    00:00 +3°C° 0 mm 5 mps 752 mmHg 81%
    01:00 +3°C° 0 mm 5 mps 752 mmHg 80%
    02:00 +3°C° 0 mm 5 mps 752 mmHg 82%
    03:00 +2°C° 0 mm 5 mps 752 mmHg 84%
    04:00 +2°C° 0 mm 5 mps 752 mmHg 86%
    05:00 +2°C° 0 mm 5 mps 753 mmHg 86%
    06:00 +2°C° 0 mm 5 mps 753 mmHg 87%
    07:00 +3°C° 0 mm 4 mps 753 mmHg 89%
    08:00 +3°C° 0.1 mm 5 mps 754 mmHg 82%
    09:00 +4°C° 0.1 mm 6 mps 754 mmHg 76%
    10:00 +5°C° 0.1 mm 6 mps 754 mmHg 69%
    11:00 +5°C° 0 mm 6 mps 755 mmHg 65%
    12:00 +7°C° 0 mm 6 mps 755 mmHg 60%
    13:00 +8°C° 0 mm 6 mps 755 mmHg 55%
    14:00 +8°C° 0 mm 6 mps 755 mmHg 56%
    15:00 +8°C° 0 mm 5 mps 755 mmHg 57%
    16:00 +8°C° 0 mm 5 mps 755 mmHg 58%
    17:00 +7°C° 0 mm 5 mps 755 mmHg 62%
    18:00 +6°C° 0 mm 4 mps 756 mmHg 66%
    19:00 +5°C° 0 mm 3 mps 756 mmHg 71%
    20:00 +5°C° 0 mm 3 mps 756 mmHg 73%
    21:00 +5°C° 0 mm 3 mps 757 mmHg 75%
    22:00 +5°C° 0 mm 3 mps 757 mmHg 77%
    23:00 +5°C° 0 mm 3 mps 757 mmHg 78%

    Tomorrow, 21 February, Thursday

    Time Temperature Precipitation Wind Pressure Humidity
    00:00 +5°C° 0 mm 4 mps 757 mmHg 79%
    01:00 +5°C° 0 mm 4 mps 758 mmHg 79%
    02:00 +4°C° 0 mm 3 mps 758 mmHg 81%
    03:00 +4°C° 0 mm 3 mps 758 mmHg 83%
    04:00 +3°C° 0 mm 3 mps 757 mmHg 85%
    05:00 +3°C° 0 mm 3 mps 757 mmHg 85%
    06:00 +3°C° 0 mm 3 mps 757 mmHg 86%
    07:00 +3°C° 0 mm 3 mps 757 mmHg 86%
    08:00 +4°C° 0 mm 4 mps 757 mmHg 82%
    09:00 +5°C° 0 mm 4 mps 757 mmHg 77%
    10:00 +6°C° 0 mm 5 mps 757 mmHg 72%
    11:00 +7°C° 0.1 mm 5 mps 757 mmHg 70%
    12:00 +7°C° 0.1 mm 5 mps 757 mmHg 68%
    13:00 +7°C° 0.1 mm 5 mps 757 mmHg 65%
    14:00 +7°C° 0.3 mm 5 mps 757 mmHg 69%
    15:00 +7°C° 0.3 mm 5 mps 756 mmHg 72%
    16:00 +7°C° 0.3 mm 5 mps 756 mmHg 75%
    17:00 +6°C° 0.1 mm 5 mps 756 mmHg 76%
    18:00 +6°C° 0.1 mm 5 mps 756 mmHg 78%
    19:00 +6°C° 0.1 mm 4 mps 756 mmHg 79%
    20:00 +6°C° 0.2 mm 5 mps 756 mmHg 81%
    21:00 +6°C° 0.2 mm 5 mps 755 mmHg 84%
    22:00 +5°C° 0.2 mm 6 mps 755 mmHg 86%
    23:00 +7°C° 0.4 mm 6 mps 755 mmHg 87%

    Day after tomorrow, 22 February, Friday

    Time Temperature Precipitation Wind Pressure Humidity
    00:00 +7°C° 0.4 mm 6 mps 755 mmHg 89%
    01:00 +7°C° 0.4 mm 6 mps 755 mmHg 90%
    02:00 +7°C° 0.2 mm 6 mps 755 mmHg 90%
    03:00 +7°C° 0.2 mm 6 mps 755 mmHg 90%
    04:00 +7°C° 0.2 mm 6 mps 756 mmHg 90%
    05:00 +5°C° 0.2 mm 6 mps 756 mmHg 89%
    06:00 +4°C° 0.2 mm 6 mps 757 mmHg 87%
    07:00 +4°C° 0.2 mm 7 mps 758 mmHg 86%
    08:00 +3°C° 0 mm 6 mps 759 mmHg 81%
    09:00 +2°C° 0 mm 6 mps 761 mmHg 77%
    10:00 -1°C° 0 mm 6 mps 762 mmHg 73%
    11:00 +1°C° 0 mm 5 mps 763 mmHg 67%
    12:00 +1°C° 0 mm 5 mps 764 mmHg 61%
    13:00 +3°C° 0 mm 4 mps 764 mmHg 55%
    14:00 +1°C° 0 mm 4 mps 765 mmHg 53%
    15:00 +1°C° 0 mm 4 mps 765 mmHg 51%
    16:00 +1°C° 0 mm 4 mps 766 mmHg 48%
    17:00 +1°C° 0 mm 3 mps 767 mmHg 53%
    18:00 0°C° 0 mm 3 mps 767 mmHg 57%
    19:00 -1°C° 0 mm 2 mps 768 mmHg 61%
    20:00 -1°C° 0 mm 2 mps 768 mmHg 61%
    21:00 -2°C° 0 mm 2 mps 769 mmHg 61%
    22:00 -2°C° 0 mm 2 mps 770 mmHg 61%
    23:00 -2°C° 0 mm 2 mps 770 mmHg 60%

    23 February, Saturday

    Time Temperature Precipitation Wind Pressure Humidity
    00:00 -2°C° 0 mm 2 mps 770 mmHg 58%
    01:00 -2°C° 0 mm 2 mps 770 mmHg 57%
    02:00 -2°C° 0 mm 2 mps 770 mmHg 56%
    03:00 -1°C° 0 mm 1 mps 770 mmHg 55%
    04:00 -1°C° 0 mm 1 mps 769 mmHg 54%
    05:00 -1°C° 0 mm 1 mps 770 mmHg 53%
    06:00 -1°C° 0 mm 1 mps 770 mmHg 53%
    07:00 -1°C° 0 mm 1 mps 770 mmHg 53%
    08:00 0°C° 0 mm 1 mps 770 mmHg 47%
    09:00 -2°C° 0 mm 2 mps 771 mmHg 41%
    10:00 -1°C° 0 mm 2 mps 771 mmHg 36%
    11:00 +1°C° 0 mm 2 mps 771 mmHg 32%
    12:00 +2°C° 0 mm 1 mps 771 mmHg 29%
    13:00 +3°C° 0 mm 1 mps 770 mmHg 26%
    14:00 +3°C° 0 mm 1 mps 770 mmHg 26%
    15:00 +3°C° 0 mm 1 mps 770 mmHg 27%
    16:00 +2°C° 0 mm 0 mps 770 mmHg 27%
    17:00 +2°C° 0 mm 0 mps 770 mmHg 30%
    18:00 +2°C° 0 mm 1 mps 770 mmHg 33%
    19:00 +1°C° 0 mm 1 mps 770 mmHg 36%
    20:00 +1°C° 0 mm 1 mps 770 mmHg 37%
    21:00 +1°C° 0 mm 1 mps 769 mmHg 37%
    22:00 +1°C° 0 mm 1 mps 769 mmHg 38%
    23:00 0°C° 0 mm 1 mps 769 mmHg 38%

    24 February, Sunday

    Time Temperature Precipitation Wind Pressure Humidity
    00:00 0°C° 0 mm 1 mps 769 mmHg 38%
    01:00 0°C° 0 mm 1 mps 769 mmHg 38%
    02:00 +1°C° 0 mm 1 mps 769 mmHg 37%
    03:00 +1°C° 0 mm 1 mps 768 mmHg 37%
    04:00 +1°C° 0 mm 1 mps 768 mmHg 36%
    05:00 +1°C° 0 mm 1 mps 768 mmHg 37%
    06:00 -1°C° 0 mm 2 mps 768 mmHg 37%
    07:00 -1°C° 0 mm 2 mps 768 mmHg 38%
    08:00 +1°C° 0 mm 2 mps 768 mmHg 37%
    09:00 +2°C° 0 mm 3 mps 768 mmHg 36%
    10:00 +3°C° 0 mm 3 mps 768 mmHg 35%
    11:00 +4°C° 0 mm 3 mps 767 mmHg 36%
    12:00 +5°C° 0 mm 3 mps 767 mmHg 37%
    13:00 +6°C° 0 mm 4 mps 767 mmHg 38%
    14:00 +6°C° 0 mm 4 mps 767 mmHg 43%
    15:00 +6°C° 0 mm 4 mps 766 mmHg 48%
    16:00 +6°C° 0 mm 4 mps 766 mmHg 52%
    17:00 +5°C° 0 mm 4 mps 766 mmHg 57%
    18:00 +4°C° 0 mm 4 mps 766 mmHg 61%
    19:00 +3°C° 0 mm 4 mps 766 mmHg 65%
    20:00 +3°C° 0 mm 4 mps 766 mmHg 67%
    21:00 +3°C° 0 mm 4 mps 766 mmHg 70%
    22:00 +1°C° 0 mm 5 mps 766 mmHg 72%
    23:00 +1°C° 0 mm 4 mps 766 mmHg 76%

    25 February, Monday

    Time Temperature Precipitation Wind Pressure Humidity
    00:00 +1°C° 0 mm 4 mps 766 mmHg 80%
    01:00 0°C° 0 mm 4 mps 766 mmHg 85%
    02:00 +1°C° 0 mm 4 mps 766 mmHg 88%
    03:00 +1°C° 0 mm 4 mps 766 mmHg 91%
    04:00 +2°C° 0 mm 3 mps 766 mmHg 94%
    05:00 +2°C° 0 mm 3 mps 767 mmHg 94%
    06:00 +2°C° 0 mm 3 mps 767 mmHg 95%
    07:00 +2°C° 0 mm 3 mps 767 mmHg 95%
    08:00 +3°C° 0 mm 3 mps 767 mmHg 90%
    09:00 +3°C° 0 mm 4 mps 768 mmHg 86%
    10:00 +4°C° 0 mm 4 mps 768 mmHg 81%
    11:00 +5°C° 0 mm 4 mps 768 mmHg 69%
    12:00 +6°C° 0 mm 4 mps 767 mmHg 58%
    13:00 +7°C° 0 mm 5 mps 767 mmHg 46%
    14:00 +7°C° 0 mm 5 mps 767 mmHg 46%
    15:00 +7°C° 0 mm 5 mps 766 mmHg 46%
    16:00 +7°C° 0 mm 5 mps 766 mmHg 46%
    17:00 +6°C° 0 mm 4 mps 766 mmHg 51%
    18:00 +5°C° 0 mm 3 mps 766 mmHg 56%
    19:00 +4°C° 0 mm 3 mps 767 mmHg 61%
    20:00 +3°C° 0 mm 3 mps 767 mmHg 63%
    21:00 +4°C° 0 mm 2 mps 767 mmHg 66%
    22:00 +3°C° 0 mm 2 mps 767 mmHg 68%
    23:00 +3°C° 0 mm 2 mps 767 mmHg 69%
    Show more